Regional Weather Roundup
Issued by NWS

Home | Current Version | Previous Version | Graphics & Text | Print | Product List | Glossary On
Versions: 1 2 3 4 5 6 7 8 9 10 11 12 13 14 15 16 17 18 19 20 21 22 23 24 25 26 27 28 29 30 31 32 33 34 35 36 37 38 39 40 41 42 43 44 45 46 47 48 49 50
000
ASUS45 KPSR 191210
RWRAZ

ARIZONA REGIONAL HOURLY WEATHER ROUNDUP
NATIONAL WEATHER SERVICE PHOENIX AZ
500 AM MST FRI SEP 19 2014

NOTE: FAIR INDICATES FEW OR NO CLOUDS BELOW 12,000 FEET WITH NO
SIGNIFICANT WEATHER AND/OR OBSTRUCTIONS TO VISIBILITY.

AZZ001>003-036-191300-
NORTHWEST ARIZONA

CITY           SKY/WX    TMP DP  RH WIND       PRES   REMARKS
BULLHEAD CITY  CLEAR     81  54  39 CALM      29.73R
KINGMAN        CLEAR     64  50  60 SE9       29.90S
6HR MIN TEMP:  64; 6HR MAX TEMP:  77;

$$

AZZ004>008-015-016-018-191300-
NORTH CENTRAL ARIZONA

CITY           SKY/WX    TMP DP  RH WIND       PRES   REMARKS
GRAND CANYON   CLOUDY    51  50  96 NE3       30.14S
6HR MIN TEMP:  49; 6HR MAX TEMP:  56;

PRESCOTT       MOCLDY    67  57  70 SE6       30.04R
6HR MIN TEMP:  64; 6HR MAX TEMP:  70;

FLAGSTAFF      CLEAR     54  52  93 CALM      30.16S
6HR MIN TEMP:  54; 6HR MAX TEMP:  57;

PAYSON         CLOUDY    66  63  88 CALM      30.07R
PAGE           PTCLDY    73  52  47 CALM      29.94S
6HR MIN TEMP:  72; 6HR MAX TEMP:  81;

$$

AZZ009>014-017-191300-
NORTHEAST ARIZONA

CITY           SKY/WX    TMP DP  RH WIND       PRES   REMARKS
WINSLOW        MOCLDY    62  58  86 SW3       30.02R
6HR MIN TEMP:  61; 6HR MAX TEMP:  71;

SAINT JOHNS    CLEAR     54  54 100 W3        30.08R
6HR MIN TEMP:  54; 6HR MAX TEMP:  65;

WINDOW ROCK    CLEAR     46  41  82 CALM      30.15R
6HR MIN TEMP:  46; 6HR MAX TEMP:  56;

SHOW LOW       PTCLDY    55  54  94 S7        30.14R
$$

AZZ023-191300-
GREATER PHOENIX AREA

CITY           SKY/WX    TMP DP  RH WIND       PRES   REMARKS
PHOENIX        MOCLDY    83  69  62 SE7       29.77R
6HR MIN TEMP:  83; 6HR MAX TEMP:  88;

BUCKEYE          N/A     79  73  83 CALM      29.78S
LUKE AFB       PTCLDY    82  72  72 S8        29.77R
6HR MIN TEMP:  82; 6HR MAX TEMP:  87;

DEER VALLEY    CLEAR     81  67  62 SE6       29.80R
6HR MIN TEMP:  81; 6HR MAX TEMP:  85;

SCOTTSDALE     PTCLDY    80  68  66 CALM      29.82R
6HR MIN TEMP:  80; 6HR MAX TEMP:  85;

MESA-GATEWAY   MOCLDY    81  70  69 S5        29.81S
$$

AZZ027-028-191300-
SOUTHWEST MARICOPA COUNTY AND PINAL COUNTY

CITY           SKY/WX    TMP DP  RH WIND       PRES   REMARKS
CASA GRANDE    PTCLDY    79  70  73 CALM      29.81S
6HR MIN TEMP:  79; 6HR MAX TEMP:  82;

$$

AZZ503-504-507>509-191300-
SOUTHEAST ARIZONA

CITY           SKY/WX    TMP DP  RH WIND       PRES   REMARKS
TUCSON         CLOUDY    74  68  81 SE5       29.90R
6HR MIN TEMP:  74; 6HR MAX TEMP:  77;

DAVIS-MONTHAN  CLOUDY    73  68  85 CALM      29.88S
6HR MIN TEMP:  73; 6HR MAX TEMP:  75;

NOGALES        CLOUDY    67  65  93 CALM      29.97R
6HR MIN TEMP:  66; 6HR MAX TEMP:  69;

SIERRA VISTA   PTCLDY    63  63 100 S6        30.02R
DOUGLAS        CLOUDY    67  65  93 S3        29.99R
6HR MIN TEMP:  66; 6HR MAX TEMP:  68;

SAFFORD        CLOUDY    69  67  93 E3        29.91S
6HR MIN TEMP:  69; 6HR MAX TEMP:  71;

$$

AZZ020-021-025-026-031-191300-
SOUTHWEST ARIZONA

CITY           SKY/WX    TMP DP  RH WIND       PRES   REMARKS
YUMA           CLEAR     81  55  40 S3        29.73R
6HR MIN TEMP:  81; 6HR MAX TEMP:  88;

$$

CAZ031-033-041-043-047-048-061-191300-
SOUTHERN CALIFORNIA

CITY           SKY/WX    TMP DP  RH WIND       PRES   REMARKS
DOWNTOWN L.A.  CLOUDY    68  62  81 CALM      29.87S
6HR MIN TEMP:  67; 6HR MAX TEMP:  71;

L.A. AIRPORT   MOCLDY    68  62  81 N3        29.88S
6HR MIN TEMP:  67; 6HR MAX TEMP:  70;

SAN DIEGO      CLOUDY    71  66  84 W7        29.88S
6HR MIN TEMP:  71; 6HR MAX TEMP:  74;

BURBANK        CLOUDY    66  60  81 S6        29.88S
6HR MIN TEMP:  66; 6HR MAX TEMP:  70;

ONTARIO        CLOUDY    68  61  78 W5        29.89S
6HR MIN TEMP:  67; 6HR MAX TEMP:  69;

RIVERSIDE      CLOUDY    68  61  78 W6        29.89R
6HR MIN TEMP:  68; 6HR MAX TEMP:  69;

PALM SPRINGS   CLEAR     77  59  53 SE6       29.74R
6HR MIN TEMP:  76; 6HR MAX TEMP:  86;

EL CENTRO NAS  CLEAR     81  57  43 SW16      29.71R
6HR MIN TEMP:  77; 6HR MAX TEMP:  85;

IMPERIAL       CLEAR     80  58  46 W16       29.70R
6HR MIN TEMP:  79; 6HR MAX TEMP:  83;

BLYTHE         CLEAR     78  61  55 S3        29.71S
6HR MIN TEMP:  77; 6HR MAX TEMP:  87;

NEEDLES        CLEAR     84  46  26 W7        29.72R
6HR MIN TEMP:  83; 6HR MAX TEMP:  93;

$$

NVZ020-UTZ003-191300-
SOUTHERN NEVADA-UTAH

CITY           SKY/WX    TMP DP  RH WIND       PRES   REMARKS
LAS VEGAS      CLEAR     77  47  34 S10       29.77R
6HR MIN TEMP:  77; 6HR MAX TEMP:  85;

SALT LAKE CITY MOCLDY    64  60  87 CALM      29.99R
6HR MIN TEMP:  63; 6HR MAX TEMP:  68; 6HR PCP:  0.19;

$$

NMZ009-TXZ055-191300-
NEW MEXICO-WEST TEXAS

CITY           SKY/WX    TMP DP  RH WIND       PRES   REMARKS
ALBUQUERQUE    CLOUDY    65  57  75 N7        30.08R
6HR MIN TEMP:  65; 6HR MAX TEMP:  68;

EL PASO        CLOUDY    67  64  90 CALM      29.96R
6HR MIN TEMP:  66; 6HR MAX TEMP:  68; 6HR PCP: TRACE;

$$


........................KEY........................
SKY/WX - SKY CONDITION/WEATHER
TMP    - TEMPERATURE IN FAHRENHEIT
DP     - DEW POINT IN FAHRENHEIT
RH     - RELATIVE HUMIDITY IN PERCENT
WIND   - DIRECTION AND SPEED IN MILES PER HOUR (MPH)
VRB    - VARIABLE WIND DIRECTION
PRES   - MEAN SEA LEVEL PRESSURE IN INCHES OF MERCURY
         F - FALLING PRESSURE   R - RISING PRESSURE
         S - STEADY PRESSURE
VSB    - VISIBILITY IN MILES
HX     - HEAT INDEX IN FAHRENHEIT
WCI    - WIND CHILL INDEX IN FAHRENHEIT
TC     - TEMPERATURE IN CELSIUS WHICH IS ALSO KNOWN AS
         TEMPERATURE IN CENTIGRADE
AFB    - AIR FORCE BASE
         LUKE AFB IS LUKE AIR FORCE BASE
         DAVIS-MONTHAN IS DAVIS-MONTHAN AIR FORCE BASE
NAS    - NAVAL AIR STATION
         EL CENTRO NAS IS EL CENTRO NAVAL AIR STATION
N/A    - NOT AVAILABLE



USA.gov is the U.S. government's official web portal to all federal, state and local government web resources and services.